Location: Newark
(43.0000°N, 1.6781°W)
Time: 01:55:39
(UTC+00:00)

Vanguard 1 Rocket - Pass Details

Date: 23 April 2021
Orbit: 652 x 4224 km, 34.3° (Epoch: 06 May)

Event Time Altitude Azimuth Distance (km) Brightness Sun altitude
Rises 13:49:48 0° 249° (WSW) 4,104 11.3 52.2°
Reaches altitude 10° 13:53:23 10° 240° (WSW) 2,723 10.7 51.8°
Maximum altitude 13:58:32 31° 179° (S) 1,290 9.1 51.1°
Drops below altitude 10° 14:02:30 10° 116° (ESE) 2,069 9.2 50.5°
Sets 14:04:51 0° 105° (ESE) 2,961 9.8 50.2°
